Jefferson, NC

4:10 PM EDT on April 20, 2018 (GMT -0400)
Ashe County

Weather History for KGEV - March, 2015

Change the Weather History Date:

Tuesday, March 3, 2015

  Actual Average Record
Temperature  
Mean Temperature 39 °F -  
Max Temperature 56 °F 53 °F 75 °F (1976)
Min Temperature 32 °F 30 °F 2 °F (1980)
Degree Days  
Heating Degree Days 26    
Moisture  
Dew Point 28 °F    
Average Humidity 71    
Maximum Humidity 100    
Minimum Humidity 52    
Precipitation  
Precipitation 0.00 in - - ()
Sea Level Pressure  
Sea Level Pressure 30.15 in    
Wind  
Wind Speed 3 mph (SSE)    
Max Wind Speed 8 mph    
Max Gust Speed -    
Visibility 9 miles    
Events Rain    
Averages and records for this station are not official NWS values.
T = Trace of Precipitation, MM = Missing Value Source: NWS Daily Summary

Daily Weather History Graph

Daily Weather History Graph

Search for Another Location

Airport or City:

Astronomy

Mar. 03, 2015 Rise Set
Actual Time 6:53 AM EST 6:21 PM EST
Civil Twilight 6:27 AM EST 6:47 PM EST
Nautical Twilight 5:58 AM EST 7:17 PM EST
Astronomical Twilight 5:28 AM EST 7:47 PM EST
Moon 4:46 PM EST (3/3) 5:30 AM EST (3/3)
Length of Visible Light 12h 19m
Length of Day
11h 28m
Waxing Gibbous, 96% of the Moon is Illuminated
Mar 3
Waxing Gibbous
Mar 5
Full
Mar 13
Last Quarter
Mar 20
New
Mar 27
First Quarter

Hourly Weather History & Observations

Time (EST) Temp. Windchill Dew Point Humidity Pressure Visibility Wind Dir Wind Speed Gust Speed Precip Events Conditions
12:15 AM 33.8 °F - 21.9 °F 62% 30.26 in 10.0 mi Calm Calm - N/A   Clear
12:35 AM 33.4 °F - 21.7 °F 62% 30.26 in 10.0 mi Calm Calm - N/A   Clear
12:55 AM 32.9 °F - 22.1 °F 65% 30.26 in 10.0 mi Calm Calm - N/A   Clear
1:15 AM 34.0 °F - 22.1 °F 62% 30.26 in 10.0 mi Calm Calm - N/A   Clear
1:35 AM 33.6 °F - 22.1 °F 63% 30.25 in 10.0 mi Calm Calm - N/A   Scattered Clouds
1:55 AM 33.3 °F - 23.0 °F 66% 30.25 in 10.0 mi Calm Calm - N/A   Mostly Cloudy
2:15 AM 33.4 °F 30.4 °F 23.2 °F 66% 30.24 in 10.0 mi South 3.5 mph - N/A   Overcast
2:35 AM 34.0 °F 31.0 °F 24.1 °F 67% 30.23 in 10.0 mi South 3.5 mph - N/A   Overcast
2:55 AM 36.7 °F 34.1 °F 22.1 °F 56% 30.24 in 10.0 mi South 3.5 mph - N/A   Overcast
3:15 AM 36.9 °F 34.3 °F 22.3 °F 56% 30.23 in 10.0 mi South 3.5 mph - N/A   Overcast
3:35 AM 36.5 °F 32.7 °F 22.5 °F 57% 30.21 in 10.0 mi South 4.6 mph - N/A   Overcast
3:55 AM 36.3 °F 33.7 °F 22.8 °F 58% 30.22 in 10.0 mi SE 3.5 mph - N/A   Overcast
4:20 AM 36.9 °F 34.3 °F 21.2 °F 53% 30.22 in 10.0 mi South 3.5 mph - N/A   Overcast
4:35 AM 36.7 °F 34.1 °F 21.9 °F 55% 30.23 in 10.0 mi SSE 3.5 mph - N/A   Overcast
4:55 AM 36.3 °F 33.7 °F 21.7 °F 56% 30.22 in 10.0 mi SE 3.5 mph - N/A   Overcast
5:15 AM 35.6 °F 29.9 °F 20.8 °F 55% 30.23 in 10.0 mi SSE 6.9 mph - N/A   Overcast
5:35 AM 34.9 °F 30.8 °F 20.5 °F 56% 30.23 in 10.0 mi SSE 4.6 mph - N/A   Overcast
5:55 AM 34.9 °F 30.8 °F 18.9 °F 52% 30.24 in 10.0 mi South 4.6 mph - N/A   Overcast
6:15 AM 34.9 °F 30.8 °F 19.0 °F 52% 30.25 in 10.0 mi SSE 4.6 mph - N/A   Overcast
6:35 AM 34.3 °F 31.4 °F 18.3 °F 52% 30.24 in 10.0 mi SSE 3.5 mph - N/A   Overcast
6:55 AM 33.8 °F 30.8 °F 19.2 °F 55% 30.24 in 10.0 mi SSE 3.5 mph - N/A   Overcast
7:15 AM 33.8 °F 28.6 °F 19.4 °F 56% 30.24 in 10.0 mi SSE 5.8 mph - N/A   Overcast
7:35 AM 33.8 °F 28.6 °F 19.4 °F 56% 30.25 in 10.0 mi SSE 5.8 mph - N/A   Overcast
7:55 AM 34.0 °F 29.8 °F 19.4 °F 55% 30.24 in 10.0 mi SSE 4.6 mph - N/A   Overcast
8:15 AM 34.3 °F 30.2 °F 20.1 °F 56% 30.24 in 10.0 mi South 4.6 mph - N/A   Overcast
8:35 AM 34.7 °F 31.8 °F 20.1 °F 55% 30.24 in 10.0 mi South 3.5 mph - N/A   Overcast
8:55 AM 35.2 °F 31.2 °F 21.6 °F 58% 30.25 in 10.0 mi South 4.6 mph - N/A   Overcast
9:15 AM 34.9 °F 30.8 °F 26.6 °F 72% 30.26 in 5.0 mi South 4.6 mph - N/A   Drizzle
9:35 AM 34.7 °F 30.6 °F 27.0 °F 73% 30.25 in 7.0 mi SSE 4.6 mph - N/A   Overcast
9:55 AM 33.8 °F 29.6 °F 24.8 °F 70% 30.25 in 10.0 mi SSE 4.6 mph - N/A Rain Light Rain
10:15 AM 32.0 °F 26.4 °F 26.2 °F 79% 30.24 in 7.0 mi SE 5.8 mph - N/A   Light Drizzle
10:35 AM 32.0 °F 26.4 °F 25.5 °F 77% 30.23 in 7.0 mi SE 5.8 mph - N/A   Overcast
10:55 AM 32.0 °F 26.4 °F 25.5 °F 77% 30.23 in 10.0 mi SSE 5.8 mph - N/A   Overcast
11:15 AM 32.5 °F 26.2 °F 25.2 °F 74% 30.23 in 10.0 mi SSE 6.9 mph - N/A   Overcast
11:35 AM 33.1 °F 28.7 °F 25.2 °F 73% 30.22 in 10.0 mi SSE 4.6 mph - N/A   Overcast
11:55 AM 34.0 °F 28.8 °F 25.7 °F 72% 30.21 in 10.0 mi SE 5.8 mph - N/A   Overcast
12:15 PM 35.1 °F 30.1 °F 26.2 °F 70% 30.20 in 10.0 mi SSE 5.8 mph - N/A   Overcast
12:35 PM 36.1 °F 31.4 °F 26.1 °F 67% 30.18 in 10.0 mi SE 5.8 mph - N/A   Overcast
12:55 PM 37.0 °F 33.3 °F 26.4 °F 65% 30.17 in 10.0 mi SE 4.6 mph - N/A   Overcast
1:15 PM 37.8 °F 33.3 °F 27.1 °F 66% 30.15 in 10.0 mi SE 5.8 mph - N/A   Overcast
1:35 PM 38.3 °F 33.9 °F 27.7 °F 66% 30.14 in 10.0 mi SE 5.8 mph - N/A   Overcast
1:55 PM 39.2 °F 35.9 °F 28.4 °F 65% 30.14 in 10.0 mi SE 4.6 mph - N/A   Overcast
2:15 PM 40.1 °F 34.7 °F 28.9 °F 64% 30.11 in 10.0 mi SE 8.1 mph - N/A   Overcast
2:35 PM 40.8 °F 36.9 °F 29.3 °F 64% 30.10 in 10.0 mi SSE 5.8 mph - N/A   Overcast
2:55 PM 42.3 °F 38.6 °F 30.9 °F 64% 30.10 in 10.0 mi SE 5.8 mph - N/A   Overcast
3:15 PM 44.2 °F 41.0 °F 32.4 °F 63% 30.09 in 10.0 mi SSE 5.8 mph - N/A   Overcast
3:35 PM 44.6 °F 42.2 °F 32.7 °F 63% 30.09 in 10.0 mi SSE 4.6 mph - N/A   Overcast
3:55 PM 46.2 °F 44.1 °F 33.4 °F 61% 30.08 in 10.0 mi SSE 4.6 mph - N/A   Overcast
4:15 PM 44.4 °F 42.9 °F 32.2 °F 62% 30.07 in 10.0 mi SE 3.5 mph - N/A   Overcast
4:35 PM 42.4 °F 39.6 °F 32.0 °F 67% 30.06 in 10.0 mi SE 4.6 mph - N/A   Mostly Cloudy
4:55 PM 42.4 °F 38.8 °F 32.0 °F 67% 30.06 in 10.0 mi SE 5.8 mph - N/A   Overcast
5:15 PM 40.8 °F 37.8 °F 32.0 °F 71% 30.05 in 10.0 mi SSE 4.6 mph - N/A   Overcast
5:35 PM 40.1 °F 38.0 °F 32.0 °F 73% 30.05 in 10.0 mi SE 3.5 mph - N/A   Overcast
5:55 PM 39.6 °F 37.4 °F 32.2 °F 75% 30.05 in 10.0 mi SSE 3.5 mph - N/A   Overcast
6:15 PM 39.2 °F 37.0 °F 32.4 °F 76% 30.05 in 10.0 mi SSE 3.5 mph - N/A   Overcast
6:35 PM 38.3 °F 34.8 °F 32.2 °F 79% 30.05 in 10.0 mi SSE 4.6 mph - N/A   Overcast
6:55 PM 37.8 °F 34.2 °F 32.4 °F 81% 30.04 in 10.0 mi SSE 4.6 mph - N/A   Overcast
7:15 PM 37.8 °F 34.2 °F 32.5 °F 81% 30.04 in 10.0 mi SSE 4.6 mph - N/A   Overcast
7:35 PM 37.6 °F 35.1 °F 32.9 °F 83% 30.04 in 10.0 mi SSE 3.5 mph - N/A   Drizzle
7:55 PM 37.8 °F - 34.7 °F 89% 30.04 in 5.0 mi Calm Calm - N/A Rain Rain
8:15 PM 37.4 °F - 36.0 °F 95% 30.04 in 5.0 mi Calm Calm - N/A Rain Light Rain
8:35 PM 37.4 °F - 36.9 °F 98% 30.04 in 4.0 mi Calm Calm - N/A   Overcast
8:55 PM 37.4 °F - 37.0 °F 99% 30.04 in 3.0 mi Calm Calm - N/A   Overcast
9:15 PM 37.8 °F - 37.6 °F 99% 30.03 in 3.0 mi Calm Calm - N/A   Overcast
9:35 PM 38.3 °F - 38.3 °F 100% 30.03 in 4.0 mi Calm Calm - N/A   Overcast
9:55 PM 37.9 °F 35.5 °F 37.8 °F 99% 30.03 in 2.5 mi SSE 3.5 mph - N/A Rain Rain
10:15 PM 38.7 °F 36.3 °F 38.5 °F 99% 30.02 in 1.5 mi North 3.5 mph - N/A Rain Rain
10:35 PM 38.8 °F - 38.7 °F 99% 30.02 in 1.8 mi Calm Calm - N/A Rain Light Rain
10:55 PM 39.9 °F - 39.7 °F 99% 30.01 in 1.8 mi Calm Calm - N/A   Overcast
11:15 PM 41.9 °F - 41.5 °F 99% 30.00 in 2.0 mi Calm Calm - N/A   Overcast
11:35 PM 42.4 °F - 42.4 °F 100% 29.99 in 3.0 mi Calm Calm - N/A   Overcast
11:55 PM 44.6 °F - 44.6 °F 100% 29.98 in 7.0 mi Calm Calm - N/A   Overcast